Regional Weather Roundup
Issued by NWS

Home | Current Version | Previous Version | Text Only | Print | Product List | Glossary On
Versions: 1 2 3 4 5 6 7 8 9 10 11 12 13 14 15 16 17 18 19 20 21 22 23 24 25 26 27 28 29 30 31 32 33 34 35 36 37 38 39 40 41 42 43 44 45 46 47 48 49 50
000
ASUS45 KREV 021010
RWRNV
NEVADA REGIONAL WEATHER ROUNDUP
NATIONAL WEATHER SERVICE RENO NV
300 AM PDT THU JUL 02 2015

NOTE: "FAIR" INDICATES FEW OR NO CLOUDS BELOW 12,000 FEET WITH NO
SIGNIFICANT WEATHER AND/OR OBSTRUCTIONS TO VISIBILITY.

NVZ001-003-004-021100-
WESTERN NEVADA

CITY           SKY/WX    TMP DP  RH WIND       PRES   REMARKS
RENO           PTCLDY    75  49  39 N7        30.10F
CARSON CITY    FAIR      68  50  52 CALM      30.14R
MINDEN         FAIR      64  48  55 S3        30.13S
SLIDE MTN        N/A     61  43  51 NE16        N/A
PYRAMID LAKE     N/A     82 N/A N/A S5          N/A
FALLON         CLOUDY    77  52  41 S8        30.05R
LOVELOCK       PTCLDY    74  51  44 S10       30.02F
HAWTHORNE      CLEAR     75  54  46 E13       30.10R
$$

NVZ002-CAZ072-073-021100-
NORTHERN AND CENTRAL SIERRA

CITY           SKY/WX    TMP DP  RH WIND       PRES   REMARKS
S. LAKE TAHOE  MOCLDY    64  52  64 CALM      30.25S
SQUAW VLY 8000 NOT AVBL
SUSANVILLE     CLEAR     68  46  45 SE6       30.10S
BLUE CANYON    PTCLDY    75  44  33 NE5       30.20S
BRIDGEPORT     FAIR      55  50  83 NW3       30.30S
$$

NVZ030-031-036-021100-
NORTHERN NEVADA

CITY           SKY/WX    TMP DP  RH WIND       PRES   REMARKS
ELKO           MOCLDY    70  50  49 N5        30.16S
WINNEMUCCA     PTCLDY    75  46  35 S9        30.06S
WENDOVER       PTCLDY    84  46  26 NW14      30.05S
$$

NVZ035-037-021100-
CENTRAL NEVADA

CITY           SKY/WX    TMP DP  RH WIND       PRES   REMARKS
ELY            CLOUDY    64  51  62 SW9       30.27F
EUREKA           N/A     70  51  51 SE6       30.19F
$$

NVZ013-014-021100-
SOUTH CENTRAL NEVADA

CITY           SKY/WX    TMP DP  RH WIND       PRES   REMARKS
TONOPAH        CLOUDY    74  51  44 E13       30.20F
$$

NVZ017-020-022-021100-
SOUTHERN NEVADA

CITY           SKY/WX    TMP DP  RH WIND       PRES   REMARKS
LAS VEGAS      TSTM      83  65  54 W20       29.88S
N. LAS VEGAS   LGT RAIN  88  58  36 E10       29.94R
NELLIS AFB     CLOUDY    88  60  38 NE7       29.91R
HENDERSON      TSTM      80  66  62 S9        29.95F
MERCURY        CLOUDY    83  55  38 N5        30.01R
$$



USA.gov is the U.S. government's official web portal to all federal, state and local government web resources and services.